Simultaneous Nadir Overpasses (SNOs) Predictions

Prediction of SNOs between NOAA-20 and AQUA Satellite Orbit:

Table of predicted SNOs for the next 14.0 days since TLE Epoch: 10/21/2023
Index Date (NOAA-20) Time (NOAA-20) Lat,Lon (NOAA-20) SZA (NOAA-20 ) Date (AQUA) Time (AQUA) Lat,Lon (AQUA) SZA (AQUA ) Distance(km) Time Diff (sec)
1 10/22/2023 04:31:23 -80.90,-154.15 80.39 10/22/2023 04:31:41 -80.90,-154.04 80.42 1.94 18
2 10/22/2023 05:22:04 80.97, 14.49 99.43 10/22/2023 05:21:02 80.97, 14.51 99.47 0.41 62
3 10/24/2023 18:15:56 80.94,-179.57 100.38 10/24/2023 18:16:21 80.94,-179.70 100.39 2.27 25
4 10/24/2023 19:06:40 -80.96, -11.83 79.67 10/24/2023 19:05:44 -80.96, -11.66 79.66 3.06 56
5 10/27/2023 08:00:32 -80.93, 154.07 78.73 10/27/2023 08:01:02 -80.92, 153.96 78.73 1.99 30
6 10/27/2023 08:51:15 80.95, -38.07 101.21 10/27/2023 08:50:24 80.96, -37.92 101.22 2.59 51
7 10/29/2023 21:45:07 80.92, 127.74 102.14 10/29/2023 21:45:40 80.92, 127.82 102.11 1.52 33
8 10/29/2023 22:35:49 -80.98, -63.75 78.02 10/29/2023 22:35:02 -80.98, -63.74 78.00 0.35 47
9 11/01/2023 11:29:40 -80.94, 102.01 77.10 11/01/2023 11:30:16 -80.93, 101.83 77.10 3.16 36
10 11/01/2023 12:20:22 80.98, -89.82 102.79 11/01/2023 12:19:37 80.98, -89.77 102.81 0.98 45
11 11/04/2023 01:14:15 80.92, 75.48 103.76 11/04/2023 01:14:51 80.92, 75.57 103.72 1.50 36



Historial Predications of SNOs between NOAA-20 and AQUA
